Weather Roundup
Issued by NWS Chicago, IL

Home | Current Version | Previous Version | Graphics & Text | Print | Product List | Glossary On
Versions: 1 2 3 4 5 6 7 8 9 10 11 12 13 14 15 16 17 18 19 20 21 22 23 24 25 26 27 28 29 30 31 32 33 34 35 36 37 38 39 40 41 42 43 44 45 46 47 48 49 50
000
NZUS59 KLOT 040521
HRRLOT

CHICAGO AREA WEATHER ROUNDUP
NATIONAL WEATHER SERVICE CHICAGO/ROMEOVILLE IL
1200 AM CDT MON MAY 04 2015

NOTE: "FAIR" INDICATES FEW OR NO CLOUDS BELOW 12,000 FEET WITH NO
SIGNIFICANT WEATHER AND/OR OBSTRUCTIONS TO VISIBILITY.

* THESE STATIONS ARE NOT UNDER NWS QUALITY CONTROL. THEY ALSO MAY NOT
  REPORT WEATHER SUCH AS PRECIPITATION OR FOG.

ILZ005-006-012>014-019>023-040600-
NORTHEAST ILLINOIS

CITY           SKY/WX    TMP DP  RH WIND       PRES   REMARKS
OHARE          PTCLDY    64  53  67 S13       29.91F
MIDWAY         CLEAR     67  53  61 S10       29.93F
AURORA         PTCLDY    65  50  58 S12       29.93S
LANSING*       PTCLDY    64  45  50 S9        29.95F
JOLIET*        PTCLDY    71  48  44 S12G21    29.94S
WAUKEGAN       PTCLDY    64  53  67 S15       29.89F
DUPAGE AIRPORT PTCLDY    63  53  70 S12       29.92F
WHEELING       PTCLDY    63  54  72 S10       29.92F
KANKAKEE*      PTCLDY    66  48  52 S14       29.97S
MORRIS*        PTCLDY    68  47  46 S16       29.92S
LEWIS AIRPORT* PTCLDY    68  46  45 SW16      29.94S
NORTHERLY IS     N/A     69  48  47 S12         N/A
$$

WIZ051-052-058>065-066-070>072-040600-
SOUTHEAST WISCONSIN

CITY           SKY/WX    TMP DP  RH WIND       PRES   REMARKS
MILWAUKEE      MOCLDY    63  54  72 S10       29.88F
KENOSHA*       MOCLDY    63  55  75 S9        29.89F
RACINE*        MOCLDY    61  53  75 S6        29.90F
BURLINGTON     MOCLDY    57  53  86 S5        29.89S
WAUKESHA       CLOUDY    59  52  77 S5        29.89F
WEST BEND      CLOUDY    63  52  67 S9        29.86F
$$

INZ001>003-010>013-019-020-040600-
NORTHWEST INDIANA

CITY           SKY/WX    TMP DP  RH WIND       PRES   REMARKS
GARY*          PTCLDY    70  40  33 S7        29.95S
MICHIGAN CITY* NOT AVBL
RENSSELAER*    NOT AVBL
VALPARAISO     MOCLDY    67  44  43 S8        29.98S
$$

LMZ740>746-040600-
SOUTHERN LAKE MICHIGAN

STATION/POSITION TIME  SKY/WX   TEMP WIND        PRES    VSBY
                                AIR  DIR/SP/G
                 (UTC)          (F)  (DEG/KT/KT) (MB)    (MI)
HARRISON CRIB    0500            68  200/ 24/ 27   N/A
BURNHAM HARBOR   0500            68  190/ 15       N/A
CALUMET HARBOR   0500            67  180/  8/ 11   N/A
BURNS HARBOR     0400            70  190/  6/ 12 1015.2R
MICHIGAN CITY    0500            68  160/ 15/ 17   N/A
$$

ABBREVIATIONS USED IN REMARKS
   TC - TEMPERATURE IN CELSIUS
  WCI - WIND CHILL INDEX
   HX - HEAT INDEX
  VSB - VISIBILITY
$$



USA.gov is the U.S. government's official web portal to all federal, state and local government web resources and services.